Year,Month,Day,Hour,Minute,Value (Times are PST for windgust in km/hr)
2018,12,20,00,00,1.60
2018,12,20,00,01,1.60
2018,12,20,00,02,1.60
2018,12,20,00,03,1.60
2018,12,20,00,04,9.60
2018,12,20,00,05,8.10
2018,12,20,00,09,1.60
2018,12,20,00,10,1.60
2018,12,20,00,17,1.60
2018,12,20,00,18,6.40
2018,12,20,00,19,6.40
2018,12,20,00,20,6.40
2018,12,20,00,21,4.80
2018,12,20,00,22,6.40
2018,12,20,00,24,1.60
2018,12,20,00,25,6.40
2018,12,20,00,27,4.80
2018,12,20,00,28,3.20
2018,12,20,00,29,1.60
2018,12,20,00,30,1.60
2018,12,20,00,31,3.20
2018,12,20,00,32,1.60
2018,12,20,00,35,1.60
2018,12,20,00,41,6.40
2018,12,20,00,42,1.60
2018,12,20,00,43,8.10
2018,12,20,00,44,4.80
2018,12,20,00,45,3.20
2018,12,20,00,46,3.20
2018,12,20,00,47,4.80
2018,12,20,00,48,4.80
2018,12,20,00,49,4.80
2018,12,20,00,50,4.80
2018,12,20,00,51,4.80
2018,12,20,00,52,4.80
2018,12,20,00,57,3.20
2018,12,20,00,58,6.40
2018,12,20,00,59,4.80
2018,12,20,01,00,3.20
2018,12,20,01,01,4.80
2018,12,20,01,05,3.20
2018,12,20,01,06,4.80
2018,12,20,01,07,3.20
2018,12,20,01,09,4.80
2018,12,20,01,10,6.40
2018,12,20,01,11,8.10
2018,12,20,01,12,3.20
2018,12,20,01,14,6.40
2018,12,20,01,15,1.60
2018,12,20,01,16,6.40
2018,12,20,01,17,9.60
2018,12,20,01,18,4.80
2018,12,20,01,19,4.80
2018,12,20,01,20,4.80
2018,12,20,01,26,1.60
2018,12,20,01,27,3.20
2018,12,20,01,31,6.40
2018,12,20,01,32,6.40
2018,12,20,01,33,3.20
2018,12,20,01,34,3.20
2018,12,20,01,37,4.80
2018,12,20,01,38,8.10
2018,12,20,01,39,3.20
2018,12,20,01,40,4.80
2018,12,20,01,41,8.10
2018,12,20,01,42,4.80
2018,12,20,01,43,3.20
2018,12,20,01,46,3.20
2018,12,20,01,47,3.20
2018,12,20,01,48,6.40
2018,12,20,01,49,9.60
2018,12,20,01,50,6.40
2018,12,20,01,51,6.40
2018,12,20,01,52,12.90
2018,12,20,01,53,9.60
2018,12,20,01,54,1.60
2018,12,20,01,55,3.20
2018,12,20,01,56,1.60
2018,12,20,01,57,3.20
2018,12,20,01,58,1.60
2018,12,20,01,59,4.80
2018,12,20,02,00,11.30
2018,12,20,02,01,8.10
2018,12,20,02,02,6.40
2018,12,20,02,03,4.80
2018,12,20,02,04,8.10
2018,12,20,02,05,8.10
2018,12,20,02,06,9.60
2018,12,20,02,07,6.40
2018,12,20,02,08,4.80
2018,12,20,02,09,9.60
2018,12,20,02,10,8.10
2018,12,20,02,11,4.80
2018,12,20,02,12,8.10
2018,12,20,02,13,6.40
2018,12,20,02,15,6.40
2018,12,20,02,16,9.60
2018,12,20,02,17,9.60
2018,12,20,02,18,9.60
2018,12,20,02,19,11.30
2018,12,20,02,20,4.80
2018,12,20,02,21,19.30
2018,12,20,02,22,9.60
2018,12,20,02,23,9.60
2018,12,20,02,24,11.30
2018,12,20,02,25,8.10
2018,12,20,02,26,8.10
2018,12,20,02,27,4.80
2018,12,20,02,28,3.20
2018,12,20,02,29,6.40
2018,12,20,02,30,8.10
2018,12,20,02,31,6.40
2018,12,20,02,32,8.10
2018,12,20,02,33,3.20
2018,12,20,02,34,3.20
2018,12,20,02,35,3.20
2018,12,20,02,37,8.10
2018,12,20,02,38,4.80
2018,12,20,02,39,3.20
2018,12,20,02,40,1.60
2018,12,20,02,41,3.20
2018,12,20,02,42,4.80
2018,12,20,02,44,1.60
2018,12,20,02,45,8.10
2018,12,20,02,46,6.40
2018,12,20,02,47,4.80
2018,12,20,02,48,3.20
2018,12,20,02,53,1.60
2018,12,20,02,55,6.40
2018,12,20,02,56,6.40
2018,12,20,02,57,9.60
2018,12,20,03,00,3.20
2018,12,20,03,02,4.80
2018,12,20,03,03,6.40
2018,12,20,03,04,6.40
2018,12,20,03,06,4.80
2018,12,20,03,07,9.60
2018,12,20,03,08,19.30
2018,12,20,03,09,8.10
2018,12,20,03,10,3.20
2018,12,20,03,11,6.40
2018,12,20,03,12,11.30
2018,12,20,03,13,9.60
2018,12,20,03,14,8.10
2018,12,20,03,15,3.20
2018,12,20,03,16,6.40
2018,12,20,03,17,1.60
2018,12,20,03,18,1.60
2018,12,20,03,19,4.80
2018,12,20,03,20,6.40
2018,12,20,03,21,3.20
2018,12,20,03,22,3.20
2018,12,20,03,24,14.50
2018,12,20,03,25,9.60
2018,12,20,03,26,1.60
2018,12,20,03,27,9.60
2018,12,20,03,28,11.30
2018,12,20,03,29,1.60
2018,12,20,03,30,4.80
2018,12,20,03,31,4.80
2018,12,20,03,33,9.60
2018,12,20,03,34,9.60
2018,12,20,03,35,3.20
2018,12,20,03,36,6.40
2018,12,20,03,37,6.40
2018,12,20,03,38,9.60
2018,12,20,03,39,9.60
2018,12,20,03,40,6.40
2018,12,20,03,41,4.80
2018,12,20,03,42,6.40
2018,12,20,03,45,1.60
2018,12,20,03,47,3.20
2018,12,20,03,48,4.80
2018,12,20,03,49,3.20
2018,12,20,03,50,6.40
2018,12,20,03,51,1.60
2018,12,20,03,54,6.40
2018,12,20,03,55,3.20
2018,12,20,03,56,8.10
2018,12,20,03,57,6.40
2018,12,20,03,58,4.80
2018,12,20,03,59,4.80
2018,12,20,04,00,4.80
2018,12,20,04,01,6.40
2018,12,20,04,02,6.40
2018,12,20,04,03,3.20
2018,12,20,04,04,3.20
2018,12,20,04,05,3.20
2018,12,20,04,06,3.20
2018,12,20,04,07,1.60
2018,12,20,04,08,4.80
2018,12,20,04,09,6.40
2018,12,20,04,10,4.80
2018,12,20,04,11,6.40
2018,12,20,04,12,8.10
2018,12,20,04,13,8.10
2018,12,20,04,14,4.80
2018,12,20,04,18,6.40
2018,12,20,04,19,6.40
2018,12,20,04,20,4.80
2018,12,20,04,21,4.80
2018,12,20,04,22,14.50
2018,12,20,04,23,8.10
2018,12,20,04,24,6.40
2018,12,20,04,25,6.40
2018,12,20,04,26,3.20
2018,12,20,04,27,3.20
2018,12,20,04,28,1.60
2018,12,20,04,36,1.60
2018,12,20,04,39,6.40
2018,12,20,04,40,8.10
2018,12,20,04,41,9.60
2018,12,20,04,42,11.30
2018,12,20,04,43,6.40
2018,12,20,04,44,4.80
2018,12,20,04,45,1.60
2018,12,20,04,46,4.80
2018,12,20,04,47,4.80
2018,12,20,04,49,1.60
2018,12,20,04,51,4.80
2018,12,20,04,52,4.80
2018,12,20,04,55,3.20
2018,12,20,04,56,3.20
2018,12,20,05,02,3.20
2018,12,20,05,03,3.20
2018,12,20,05,05,1.60
2018,12,20,05,09,3.20
2018,12,20,05,10,1.60
2018,12,20,05,11,6.40
2018,12,20,05,12,1.60
2018,12,20,05,19,1.60
2018,12,20,05,24,4.80
2018,12,20,05,25,4.80
2018,12,20,05,30,6.40
2018,12,20,05,31,4.80
2018,12,20,05,32,3.20
2018,12,20,05,39,1.60
2018,12,20,05,40,3.20
2018,12,20,05,41,8.10
2018,12,20,05,42,9.60
2018,12,20,05,44,1.60
2018,12,20,05,45,1.60
2018,12,20,05,46,1.60
2018,12,20,05,47,1.60
2018,12,20,05,48,1.60
2018,12,20,05,51,1.60
2018,12,20,05,52,1.60
2018,12,20,05,53,4.80
2018,12,20,05,54,1.60
2018,12,20,05,55,6.40
2018,12,20,05,56,6.40
2018,12,20,05,57,3.20
2018,12,20,05,58,16.10
2018,12,20,05,59,17.70
2018,12,20,06,00,19.30
2018,12,20,06,01,14.50
2018,12,20,06,02,16.10
2018,12,20,06,03,16.10
2018,12,20,06,04,16.10
2018,12,20,06,05,17.70
2018,12,20,06,06,19.30
2018,12,20,06,07,24.20
2018,12,20,06,08,22.50
2018,12,20,06,09,20.90
2018,12,20,06,10,19.30
2018,12,20,06,11,12.90
2018,12,20,06,12,9.60
2018,12,20,06,13,16.10
2018,12,20,06,14,19.30
2018,12,20,06,15,16.10
2018,12,20,06,16,19.30
2018,12,20,06,17,8.10
2018,12,20,06,18,17.70
2018,12,20,06,19,19.30
2018,12,20,06,20,22.50
2018,12,20,06,21,17.70
2018,12,20,06,22,16.10
2018,12,20,06,23,8.10
2018,12,20,06,24,20.90
2018,12,20,06,25,19.30
2018,12,20,06,26,22.50
2018,12,20,06,27,20.90
2018,12,20,06,28,25.70
2018,12,20,06,29,11.30
2018,12,20,06,30,11.30
2018,12,20,06,31,17.70
2018,12,20,06,32,17.70
2018,12,20,06,33,14.50
2018,12,20,06,34,9.60
2018,12,20,06,35,8.10
2018,12,20,06,36,17.70
2018,12,20,06,37,11.30
2018,12,20,06,38,24.20
2018,12,20,06,39,9.60
2018,12,20,06,40,11.30
2018,12,20,06,41,9.60
2018,12,20,06,42,16.10
2018,12,20,06,43,25.70
2018,12,20,06,44,8.10
2018,12,20,06,45,17.70
2018,12,20,06,46,24.20
2018,12,20,06,47,29.00
2018,12,20,06,48,22.50
2018,12,20,06,49,14.50
2018,12,20,06,50,25.70
2018,12,20,06,51,8.10
2018,12,20,06,52,20.90
2018,12,20,06,53,14.50
2018,12,20,06,54,14.50
2018,12,20,06,55,20.90
2018,12,20,06,56,24.20
2018,12,20,06,57,14.50
2018,12,20,06,58,19.30
2018,12,20,06,59,14.50
2018,12,20,07,00,32.20
2018,12,20,07,01,16.10
2018,12,20,07,02,11.30
2018,12,20,07,03,22.50
2018,12,20,07,04,20.90
2018,12,20,07,05,24.20
2018,12,20,07,06,19.30
2018,12,20,07,07,16.10
2018,12,20,07,08,9.60
2018,12,20,07,09,24.20
2018,12,20,07,10,14.50
2018,12,20,07,11,16.10
2018,12,20,07,12,17.70
2018,12,20,07,13,27.40
2018,12,20,07,14,19.30
2018,12,20,07,15,17.70
2018,12,20,07,16,24.20
2018,12,20,07,17,11.30
2018,12,20,07,18,17.70
2018,12,20,07,19,17.70
2018,12,20,07,20,19.30
2018,12,20,07,21,17.70
2018,12,20,07,22,29.00
2018,12,20,07,23,22.50
2018,12,20,07,24,22.50
2018,12,20,07,25,9.60
2018,12,20,07,26,20.90
2018,12,20,07,27,20.90
2018,12,20,07,28,20.90
2018,12,20,07,29,17.70
2018,12,20,07,30,27.40
2018,12,20,07,31,20.90
2018,12,20,07,32,17.70
2018,12,20,07,33,12.90
2018,12,20,07,34,8.10
2018,12,20,07,35,22.50
2018,12,20,07,36,17.70
2018,12,20,07,37,11.30
2018,12,20,07,38,6.40
2018,12,20,07,39,17.70
2018,12,20,07,40,20.90
2018,12,20,07,41,11.30
2018,12,20,07,42,9.60
2018,12,20,07,43,9.60
2018,12,20,07,44,17.70
2018,12,20,07,45,16.10
2018,12,20,07,46,11.30
2018,12,20,07,47,9.60
2018,12,20,07,48,9.60
2018,12,20,07,49,11.30
2018,12,20,07,50,11.30
2018,12,20,07,51,6.40
2018,12,20,07,52,3.20
2018,12,20,07,53,8.10
2018,12,20,07,54,6.40
2018,12,20,07,55,6.40
2018,12,20,07,56,4.80
2018,12,20,07,57,8.10
2018,12,20,07,58,1.60
2018,12,20,07,59,16.10
2018,12,20,08,00,6.40
2018,12,20,08,01,9.60
2018,12,20,08,02,16.10
2018,12,20,08,03,9.60
2018,12,20,08,04,16.10
2018,12,20,08,05,14.50
2018,12,20,08,06,3.20
2018,12,20,08,07,1.60
2018,12,20,08,08,8.10
2018,12,20,08,10,4.80
2018,12,20,08,11,9.60
2018,12,20,08,12,9.60
2018,12,20,08,13,3.20
2018,12,20,08,17,6.40
2018,12,20,08,18,4.80
2018,12,20,08,19,3.20
2018,12,20,08,20,3.20
2018,12,20,08,21,1.60
2018,12,20,08,23,1.60
2018,12,20,08,24,3.20
2018,12,20,08,25,6.40
2018,12,20,08,26,8.10
2018,12,20,08,27,8.10
2018,12,20,08,29,3.20
2018,12,20,08,30,3.20
2018,12,20,08,31,1.60
2018,12,20,08,34,3.20
2018,12,20,08,36,9.60
2018,12,20,08,37,9.60
2018,12,20,08,38,4.80
2018,12,20,08,40,11.30
2018,12,20,08,41,6.40
2018,12,20,08,42,8.10
2018,12,20,08,43,8.10
2018,12,20,08,44,6.40
2018,12,20,08,45,6.40
2018,12,20,08,46,11.30
2018,12,20,08,47,11.30
2018,12,20,08,48,6.40
2018,12,20,08,49,6.40
2018,12,20,08,50,11.30
2018,12,20,08,51,9.60
2018,12,20,08,52,6.40
2018,12,20,08,53,9.60
2018,12,20,08,54,9.60
2018,12,20,08,55,16.10
2018,12,20,08,56,9.60
2018,12,20,08,57,19.30
2018,12,20,08,58,17.70
2018,12,20,08,59,9.60
2018,12,20,09,00,9.60
2018,12,20,09,01,9.60
2018,12,20,09,02,8.10
2018,12,20,09,03,9.60
2018,12,20,09,04,24.20
2018,12,20,09,05,20.90
2018,12,20,09,06,27.40
2018,12,20,09,07,14.50
2018,12,20,09,08,17.70
2018,12,20,09,09,9.60
2018,12,20,09,10,14.50
2018,12,20,09,11,12.90
2018,12,20,09,12,6.40
2018,12,20,09,13,19.30
2018,12,20,09,14,11.30
2018,12,20,09,15,17.70
2018,12,20,09,16,20.90
2018,12,20,09,17,11.30
2018,12,20,09,18,12.90
2018,12,20,09,19,9.60
2018,12,20,09,20,14.50
2018,12,20,09,21,11.30
2018,12,20,09,22,8.10
2018,12,20,09,23,8.10
2018,12,20,09,24,8.10
2018,12,20,09,25,9.60
2018,12,20,09,26,6.40
2018,12,20,09,27,9.60
2018,12,20,09,28,9.60
2018,12,20,09,29,9.60
2018,12,20,09,30,8.10
2018,12,20,09,31,11.30
2018,12,20,09,32,9.60
2018,12,20,09,33,11.30
2018,12,20,09,34,11.30
2018,12,20,09,35,8.10
2018,12,20,09,36,8.10
2018,12,20,09,37,8.10
2018,12,20,09,38,4.80
2018,12,20,09,39,3.20
2018,12,20,09,41,6.40
2018,12,20,09,42,8.10
2018,12,20,09,43,8.10
2018,12,20,09,44,8.10
2018,12,20,09,45,8.10
2018,12,20,09,46,9.60
2018,12,20,09,47,8.10
2018,12,20,09,48,8.10
2018,12,20,09,49,6.40
2018,12,20,09,50,1.60
2018,12,20,09,51,3.20
2018,12,20,09,52,4.80
2018,12,20,09,53,3.20
2018,12,20,09,54,8.10
2018,12,20,09,55,6.40
2018,12,20,09,56,9.60
2018,12,20,09,57,9.60
2018,12,20,09,58,9.60
2018,12,20,09,59,8.10
2018,12,20,10,00,9.60
2018,12,20,10,01,11.30
2018,12,20,10,02,12.90
2018,12,20,10,03,17.70
2018,12,20,10,04,16.10
2018,12,20,10,05,9.60
2018,12,20,10,06,6.40
2018,12,20,10,07,6.40
2018,12,20,10,08,9.60
2018,12,20,10,09,12.90
2018,12,20,10,10,9.60
2018,12,20,10,11,11.30
2018,12,20,10,12,14.50
2018,12,20,10,13,9.60
2018,12,20,10,14,16.10
2018,12,20,10,15,17.70
2018,12,20,10,16,14.50
2018,12,20,10,17,14.50
2018,12,20,10,18,8.10
2018,12,20,10,19,11.30
2018,12,20,10,20,17.70
2018,12,20,10,21,11.30
2018,12,20,10,22,9.60
2018,12,20,10,23,8.10
2018,12,20,10,24,8.10
2018,12,20,10,25,16.10
2018,12,20,10,26,11.30
2018,12,20,10,27,9.60
2018,12,20,10,28,8.10
2018,12,20,10,29,9.60
2018,12,20,10,30,14.50
2018,12,20,10,31,16.10
2018,12,20,10,32,14.50
2018,12,20,10,33,9.60
2018,12,20,10,34,6.40
2018,12,20,10,35,9.60
2018,12,20,10,36,8.10
2018,12,20,10,37,6.40
2018,12,20,10,38,8.10
2018,12,20,10,39,4.80
2018,12,20,10,40,3.20
2018,12,20,10,43,4.80
2018,12,20,10,44,4.80
2018,12,20,10,45,6.40
2018,12,20,10,46,3.20
2018,12,20,10,47,4.80
2018,12,20,10,48,6.40
2018,12,20,10,49,12.90
2018,12,20,10,50,17.70
2018,12,20,10,51,6.40
2018,12,20,10,52,16.10
2018,12,20,10,53,11.30
2018,12,20,10,54,9.60
2018,12,20,10,55,4.80
2018,12,20,10,56,22.50
2018,12,20,10,57,20.90
2018,12,20,10,58,27.40
2018,12,20,10,59,25.70
2018,12,20,11,00,9.60
2018,12,20,11,01,8.10
2018,12,20,11,02,11.30
2018,12,20,11,03,29.00
2018,12,20,11,04,19.30
2018,12,20,11,05,29.00
2018,12,20,11,06,24.20
2018,12,20,11,07,38.60
2018,12,20,11,08,19.30
2018,12,20,11,09,35.40
2018,12,20,11,10,22.50
2018,12,20,11,11,17.70
2018,12,20,11,12,27.40
2018,12,20,11,13,25.70
2018,12,20,11,14,30.60
2018,12,20,11,15,20.90
2018,12,20,11,16,29.00
2018,12,20,11,17,20.90
2018,12,20,11,18,24.20
2018,12,20,11,19,22.50
2018,12,20,11,20,25.70
2018,12,20,11,21,27.40
2018,12,20,11,22,20.90
2018,12,20,11,23,29.00
2018,12,20,11,24,27.40
2018,12,20,11,25,25.70
2018,12,20,11,26,27.40
2018,12,20,11,27,14.50
2018,12,20,11,28,27.40
2018,12,20,11,29,30.60
2018,12,20,11,30,29.00
2018,12,20,11,31,25.70
2018,12,20,11,32,41.80
2018,12,20,11,33,33.80
2018,12,20,11,34,19.30
2018,12,20,11,35,24.20
2018,12,20,11,36,24.20
2018,12,20,11,37,32.20
2018,12,20,11,38,51.50
2018,12,20,11,39,37.00
2018,12,20,11,40,32.20
2018,12,20,11,41,19.30
2018,12,20,11,42,40.20
2018,12,20,11,43,30.60
2018,12,20,11,44,38.60
2018,12,20,11,45,40.20
2018,12,20,11,46,29.00
2018,12,20,11,47,22.50
2018,12,20,11,48,46.70
2018,12,20,11,49,27.40
2018,12,20,11,50,38.60
2018,12,20,11,51,19.30
2018,12,20,11,52,40.20
2018,12,20,11,53,32.20
2018,12,20,11,54,37.00
2018,12,20,11,55,33.80
2018,12,20,11,56,41.80
2018,12,20,11,57,29.00
2018,12,20,11,58,57.90
2018,12,20,11,59,51.50
2018,12,20,12,00,30.60
2018,12,20,12,01,37.00
2018,12,20,12,02,30.60
2018,12,20,12,03,37.00
2018,12,20,12,04,40.20
2018,12,20,12,05,46.70
2018,12,20,12,06,43.50
2018,12,20,12,07,41.80
2018,12,20,12,08,35.40
2018,12,20,12,09,37.00
2018,12,20,12,10,43.50
2018,12,20,12,11,25.70
2018,12,20,12,12,45.10
2018,12,20,12,13,16.10
2018,12,20,12,14,25.70
2018,12,20,12,15,25.70
2018,12,20,12,16,22.50
2018,12,20,12,17,16.10
2018,12,20,12,18,37.00
2018,12,20,12,19,69.20
2018,12,20,12,20,46.70
2018,12,20,12,21,30.60
2018,12,20,12,22,20.90
2018,12,20,12,23,37.00
2018,12,20,12,24,30.60
2018,12,20,12,25,29.00
2018,12,20,12,26,61.20
2018,12,20,12,27,54.70
2018,12,20,12,28,49.90
2018,12,20,12,29,30.60
2018,12,20,12,30,33.80
2018,12,20,12,31,27.40
2018,12,20,12,32,45.10
2018,12,20,12,33,33.80
2018,12,20,12,34,49.90
2018,12,20,12,35,45.10
2018,12,20,12,36,35.40
2018,12,20,12,37,43.50
2018,12,20,12,38,51.50
2018,12,20,12,39,37.00
2018,12,20,12,40,48.30
2018,12,20,12,41,33.80
2018,12,20,12,42,33.80
2018,12,20,12,43,54.70
2018,12,20,12,44,43.50
2018,12,20,12,45,30.60
2018,12,20,12,46,33.80
2018,12,20,12,47,35.40
2018,12,20,12,48,45.10
2018,12,20,12,49,61.20
2018,12,20,12,50,62.70
2018,12,20,12,51,48.30
2018,12,20,12,52,32.20
2018,12,20,12,53,53.10
2018,12,20,12,54,25.70
2018,12,20,12,55,38.60
2018,12,20,12,56,29.00
2018,12,20,12,57,40.20
2018,12,20,12,58,35.40
2018,12,20,12,59,35.40
2018,12,20,13,00,24.20
2018,12,20,13,01,54.70
2018,12,20,13,02,49.90
2018,12,20,13,03,27.40
2018,12,20,13,04,27.40
2018,12,20,13,05,43.50
2018,12,20,13,06,38.60
2018,12,20,13,07,45.10
2018,12,20,13,08,29.00
2018,12,20,13,09,54.70
2018,12,20,13,10,51.50
2018,12,20,13,11,40.20
2018,12,20,13,12,43.50
2018,12,20,13,13,33.80
2018,12,20,13,14,48.30
2018,12,20,13,15,46.70
2018,12,20,13,16,62.70
2018,12,20,13,17,33.80
2018,12,20,13,18,40.20
2018,12,20,13,19,38.60
2018,12,20,13,20,35.40
2018,12,20,13,21,22.50
2018,12,20,13,22,30.60
2018,12,20,13,23,53.10
2018,12,20,13,24,40.20
2018,12,20,13,25,38.60
2018,12,20,13,26,33.80
2018,12,20,13,27,37.00
2018,12,20,13,28,51.50
2018,12,20,13,29,35.40
2018,12,20,13,30,38.60
2018,12,20,13,31,54.70
2018,12,20,13,32,45.10
2018,12,20,13,33,33.80
2018,12,20,13,34,45.10
2018,12,20,13,35,43.50
2018,12,20,13,36,53.10
2018,12,20,13,37,46.70
2018,12,20,13,38,29.00
2018,12,20,13,39,33.80
2018,12,20,13,40,24.20
2018,12,20,13,41,29.00
2018,12,20,13,42,53.10
2018,12,20,13,43,40.20
2018,12,20,13,44,16.10
2018,12,20,13,45,33.80
2018,12,20,13,46,30.60
2018,12,20,13,47,37.00
2018,12,20,13,48,33.80
2018,12,20,13,49,32.20
2018,12,20,13,50,33.80
2018,12,20,13,51,51.50
2018,12,20,13,52,53.10
2018,12,20,13,53,48.30
2018,12,20,13,54,46.70
2018,12,20,13,55,74.00
2018,12,20,13,56,57.90
2018,12,20,13,57,53.10
2018,12,20,13,58,45.10
2018,12,20,13,59,48.30
2018,12,20,14,00,53.10
2018,12,20,14,01,41.80
2018,12,20,14,02,61.20
2018,12,20,14,03,45.10
2018,12,20,14,04,66.00
2018,12,20,14,05,37.00
2018,12,20,14,06,38.60
2018,12,20,14,07,53.10
2018,12,20,14,08,33.80
2018,12,20,14,09,48.30
2018,12,20,14,10,46.70
2018,12,20,14,11,66.00
2018,12,20,14,12,53.10
2018,12,20,14,13,33.80
2018,12,20,14,14,53.10
2018,12,20,14,15,46.70
2018,12,20,14,16,37.00
2018,12,20,14,17,32.20
2018,12,20,14,18,40.20
2018,12,20,14,19,66.00
2018,12,20,14,20,45.10
2018,12,20,14,21,35.40
2018,12,20,14,22,32.20
2018,12,20,14,23,43.50
2018,12,20,14,24,38.60
2018,12,20,14,25,35.40
2018,12,20,14,26,59.50
2018,12,20,14,27,51.50
2018,12,20,14,28,51.50
2018,12,20,14,29,54.70
2018,12,20,14,30,48.30
2018,12,20,14,31,41.80
2018,12,20,14,32,37.00
2018,12,20,14,33,37.00
2018,12,20,14,34,43.50
2018,12,20,14,35,32.20
2018,12,20,14,36,54.70
2018,12,20,14,37,57.90
2018,12,20,14,38,74.00
2018,12,20,14,39,46.70
2018,12,20,14,40,46.70
2018,12,20,14,41,25.70
2018,12,20,14,42,57.90
2018,12,20,14,43,46.70
2018,12,20,14,44,43.50
2018,12,20,14,45,33.80
2018,12,20,14,46,46.70
2018,12,20,14,47,53.10
2018,12,20,14,48,35.40
2018,12,20,14,49,37.00
2018,12,20,14,50,25.70
2018,12,20,14,51,27.40
2018,12,20,14,52,29.00
2018,12,20,14,53,30.60
2018,12,20,14,54,62.70
2018,12,20,14,55,48.30
2018,12,20,14,56,59.50
2018,12,20,14,57,59.50
2018,12,20,14,58,38.60
2018,12,20,14,59,48.30
2018,12,20,15,00,46.70
2018,12,20,15,01,41.80
2018,12,20,15,02,49.90
2018,12,20,15,03,46.70
2018,12,20,15,04,29.00
2018,12,20,15,05,27.40
2018,12,20,15,06,25.70
2018,12,20,15,07,51.50
2018,12,20,15,08,56.30
2018,12,20,15,09,37.00
2018,12,20,15,10,45.10
2018,12,20,15,11,53.10
2018,12,20,15,12,29.00
2018,12,20,15,13,41.80
2018,12,20,15,14,40.20
2018,12,20,15,15,32.20
2018,12,20,15,16,24.20
2018,12,20,15,17,43.50
2018,12,20,15,18,49.90
2018,12,20,15,19,35.40
2018,12,20,15,20,24.20
2018,12,20,15,21,17.70
2018,12,20,15,22,32.20
2018,12,20,15,23,49.90
2018,12,20,15,24,41.80
2018,12,20,15,25,33.80
2018,12,20,15,26,43.50
2018,12,20,15,27,40.20
2018,12,20,15,28,19.30
2018,12,20,15,29,45.10
2018,12,20,15,30,45.10
2018,12,20,15,31,19.30
2018,12,20,15,32,17.70
2018,12,20,15,33,41.80
2018,12,20,15,34,35.40
2018,12,20,15,35,49.90
2018,12,20,15,36,38.60
2018,12,20,15,37,38.60
2018,12,20,15,38,33.80
2018,12,20,15,39,33.80
2018,12,20,15,40,30.60
2018,12,20,15,41,37.00
2018,12,20,15,42,32.20
2018,12,20,15,43,46.70
2018,12,20,15,44,30.60
2018,12,20,15,45,32.20
2018,12,20,15,46,49.90
2018,12,20,15,47,48.30
2018,12,20,15,48,35.40
2018,12,20,15,49,35.40
2018,12,20,15,50,35.40
2018,12,20,15,51,32.20
2018,12,20,15,52,40.20
2018,12,20,15,53,38.60
2018,12,20,15,54,32.20
2018,12,20,15,55,35.40
2018,12,20,15,56,29.00
2018,12,20,15,57,24.20
2018,12,20,15,58,37.00
2018,12,20,15,59,35.40
2018,12,20,16,00,43.50
2018,12,20,16,01,33.80
2018,12,20,16,02,32.20
2018,12,20,16,03,46.70
2018,12,20,16,04,43.50
2018,12,20,16,05,43.50
2018,12,20,16,06,51.50
2018,12,20,16,07,29.00
2018,12,20,16,08,38.60
2018,12,20,16,09,70.80
2018,12,20,16,10,54.70
2018,12,20,16,11,48.30
2018,12,20,16,12,49.90
2018,12,20,16,13,45.10
2018,12,20,16,14,54.70
2018,12,20,16,15,49.90
2018,12,20,16,16,53.10
2018,12,20,16,17,41.80
2018,12,20,16,18,51.50
2018,12,20,16,19,62.70
2018,12,20,16,20,41.80
2018,12,20,16,21,49.90
2018,12,20,16,22,74.00
2018,12,20,16,23,78.80
2018,12,20,16,24,61.20
2018,12,20,16,25,49.90
2018,12,20,16,26,56.30
2018,12,20,16,27,41.80
2018,12,20,16,28,40.20
2018,12,20,16,29,54.70
2018,12,20,16,30,29.00
2018,12,20,16,31,33.80
2018,12,20,16,32,37.00
2018,12,20,16,33,45.10
2018,12,20,16,34,22.50
2018,12,20,16,35,37.00
2018,12,20,16,36,22.50
2018,12,20,16,37,29.00
2018,12,20,16,38,24.20
2018,12,20,16,39,30.60
2018,12,20,16,40,29.00
2018,12,20,16,41,19.30
2018,12,20,16,42,24.20
2018,12,20,16,43,20.90
2018,12,20,16,44,27.40
2018,12,20,16,45,17.70
2018,12,20,16,46,14.50
2018,12,20,16,47,20.90
2018,12,20,16,48,37.00
2018,12,20,16,49,37.00
2018,12,20,16,50,41.80
2018,12,20,16,51,14.50
2018,12,20,16,52,17.70
2018,12,20,16,53,14.50
2018,12,20,16,54,20.90
2018,12,20,16,55,30.60
2018,12,20,16,56,32.20
2018,12,20,16,57,22.50
2018,12,20,16,58,17.70
2018,12,20,16,59,17.70
2018,12,20,17,00,24.20
2018,12,20,17,01,20.90
2018,12,20,17,02,9.60
2018,12,20,17,03,8.10
2018,12,20,17,04,11.30
2018,12,20,17,05,16.10
2018,12,20,17,06,20.90
2018,12,20,17,07,25.70
2018,12,20,17,08,20.90
2018,12,20,17,09,6.40
2018,12,20,17,10,17.70
2018,12,20,17,11,11.30
2018,12,20,17,12,29.00
2018,12,20,17,13,33.80
2018,12,20,17,14,24.20
2018,12,20,17,15,40.20
2018,12,20,17,16,35.40
2018,12,20,17,17,30.60
2018,12,20,17,18,27.40
2018,12,20,17,19,20.90
2018,12,20,17,20,20.90
2018,12,20,17,21,24.20
2018,12,20,17,22,40.20
2018,12,20,17,23,32.20
2018,12,20,17,24,25.70
2018,12,20,17,25,37.00
2018,12,20,17,26,19.30
2018,12,20,17,27,30.60
2018,12,20,17,28,22.50
2018,12,20,17,29,11.30
2018,12,20,17,30,9.60
2018,12,20,17,31,38.60
2018,12,20,17,32,40.20
2018,12,20,17,33,22.50
2018,12,20,17,34,16.10
2018,12,20,17,35,14.50
2018,12,20,17,36,27.40
2018,12,20,17,37,29.00
2018,12,20,17,38,27.40
2018,12,20,17,39,20.90
2018,12,20,17,40,9.60
2018,12,20,17,41,37.00
2018,12,20,17,42,40.20
2018,12,20,17,43,14.50
2018,12,20,17,44,46.70
2018,12,20,17,45,38.60
2018,12,20,17,46,30.60
2018,12,20,17,47,37.00
2018,12,20,17,48,29.00
2018,12,20,17,49,32.20
2018,12,20,17,50,32.20
2018,12,20,17,51,22.50
2018,12,20,17,52,30.60
2018,12,20,17,53,32.20
2018,12,20,17,54,46.70
2018,12,20,17,55,40.20
2018,12,20,17,56,40.20
2018,12,20,17,57,27.40
2018,12,20,17,58,35.40
2018,12,20,17,59,33.80
2018,12,20,18,00,8.10
2018,12,20,18,01,11.30
2018,12,20,18,02,17.70
2018,12,20,18,03,20.90
2018,12,20,18,04,35.40
2018,12,20,18,05,24.20
2018,12,20,18,06,14.50
2018,12,20,18,07,11.30
2018,12,20,18,08,22.50
2018,12,20,18,09,25.70
2018,12,20,18,10,17.70
2018,12,20,18,11,17.70
2018,12,20,18,12,16.10
2018,12,20,18,13,27.40
2018,12,20,18,14,32.20
2018,12,20,18,15,43.50
2018,12,20,18,16,30.60
2018,12,20,18,17,35.40
2018,12,20,18,18,35.40
2018,12,20,18,19,24.20
2018,12,20,18,20,46.70
2018,12,20,18,21,22.50
2018,12,20,18,22,19.30
2018,12,20,18,23,17.70
2018,12,20,18,24,24.20
2018,12,20,18,25,20.90
2018,12,20,18,26,19.30
2018,12,20,18,27,20.90
2018,12,20,18,28,22.50
2018,12,20,18,29,27.40
2018,12,20,18,30,24.20
2018,12,20,18,31,38.60
2018,12,20,18,32,40.20
2018,12,20,18,33,29.00
2018,12,20,18,34,17.70
2018,12,20,18,35,25.70
2018,12,20,18,36,11.30
2018,12,20,18,37,16.10
2018,12,20,18,38,24.20
2018,12,20,18,39,33.80
2018,12,20,18,40,32.20
2018,12,20,18,41,33.80
2018,12,20,18,42,19.30
2018,12,20,18,43,30.60
2018,12,20,18,44,22.50
2018,12,20,18,45,29.00
2018,12,20,18,46,16.10
2018,12,20,18,47,16.10
2018,12,20,18,48,35.40
2018,12,20,18,49,17.70
2018,12,20,18,50,20.90
2018,12,20,18,51,19.30
2018,12,20,18,52,19.30
2018,12,20,18,53,25.70
2018,12,20,18,54,29.00
2018,12,20,18,55,27.40
2018,12,20,18,56,6.40
2018,12,20,18,57,20.90
2018,12,20,18,58,11.30
2018,12,20,18,59,14.50
2018,12,20,19,00,16.10
2018,12,20,19,01,6.40
2018,12,20,19,02,25.70
2018,12,20,19,03,38.60
2018,12,20,19,04,25.70
2018,12,20,19,05,20.90
2018,12,20,19,06,19.30
2018,12,20,19,07,22.50
2018,12,20,19,08,12.90
2018,12,20,19,09,20.90
2018,12,20,19,10,24.20
2018,12,20,19,11,24.20
2018,12,20,19,12,22.50
2018,12,20,19,13,33.80
2018,12,20,19,14,29.00
2018,12,20,19,15,20.90
2018,12,20,19,16,16.10
2018,12,20,19,17,35.40
2018,12,20,19,18,30.60
2018,12,20,19,19,16.10
2018,12,20,19,20,11.30
2018,12,20,19,21,29.00
2018,12,20,19,22,43.50
2018,12,20,19,23,41.80
2018,12,20,19,24,11.30
2018,12,20,19,25,19.30
2018,12,20,19,26,20.90
2018,12,20,19,27,27.40
2018,12,20,19,28,41.80
2018,12,20,19,29,29.00
2018,12,20,19,30,14.50
2018,12,20,19,31,29.00
2018,12,20,19,32,24.20
2018,12,20,19,33,29.00
2018,12,20,19,34,29.00
2018,12,20,19,35,40.20